Find Starlink 30711

NORAD ID: 57940 Int'l Des: 2023-148 Owner: SPXS Country: US Constellation: starlink operational
LEOCIRCULAR

現在のビュー

3D地球を読み込み中...

About Starlink 30711

Starlink 30711 (NORAD 57940) is a starlink constellation satellite (v2 mini) launched Sep 25, 2023 by SPXS of US. It operates in LEO, CIRCULAR orbit with a mass of 730.00 kg.

Starlink 30711について

説明を読み込み中...

次回通過

Passes for default location (London). Set your location on the main map for personalized predictions.

高度履歴

Loading altitude history...

軌道要素

1 57940U 23148F 26175.90375551 .00004721 00000-0 17141-3 0 9990
2 57940 53.1581 246.4693 0001008 93.8508 266.2608 15.30202622154830
Epoch: Jun 24, 2026 • Age: 15 hours

現在のステータス

高度 477.0 km
速度 7.63 km/s
衛星直下点 -5.60°S, 35.07°W
打ち上げ日 Sep 25, 2023
運用期間 2.7 years
タイプ internet

技術仕様

分類 Payload
質量 730.00 kg
乾燥質量 700.00 kg
総質量 730.00 kg
長さ 0.30 m
直径 4.10 m
スパン 29.00 m
形状 Box + pan
製造者 SPXS
バスタイプ Starlink V2M
フェーズステータス In Orbit
所有者/国 SPXS/US

Most Searched